Tracking 25709 objects as of 23-May-2022
HD Live streaming from Space Station
objects crossing your sky now

COSMOS 2251 DEB

Track COSMOS 2251 DEB now!
10-day predictions


NORAD ID: 34061
Int'l Code: 1993-036JY
Perigee: 762.4 km
Apogee: 793.7 km
Inclination: 74.0 °
Period: 100.3 minutes
Semi major axis: 7149 km
RCS: 0.027 m2 (small)
Launch date: June 16, 1993
Source: Commonwealth of Independent States (former USSR) (CIS)
Launch site: PLESETSK MISSILE AND SPACE COMPLEX (PKMTR)

Note: This is SATELLITE DEBRIS
aabbcc
Your satellite tracking list
Your tracking list is empty




NASA's NSSDC Master Catalog

Two Line Element Set (TLE):
1 34061U 93036JY  22142.75720620  .00000960  00000-0  33686-3 0  9999
2 34061  74.0388 137.1784 0021901 180.4738 351.4290 14.36257361694934
Source of the keplerian elements: AFSPC